www.pogodaiklimat.ru

Погода и климат >> Архив погоды >> Россия >> Волгоградская область >> Волгоград


АРХИВ ПОГОДЫ в Волгограде

Время (UTC), дата Ветер
(напр.,м/с)
 
Видим.   Явления Облачность Т
(С)
Тd
(С)
f
(%)
Тe
(С)
Тes
(С)
Комфортность P
(гПа)
Po
(гПа)
Тmin
(С)
Tmax
(С)
R
(мм)
R24
(мм)
S
(см)
18 6.12 ЮЗ 3 4000 м дымка ясно -2.9 -3.3 97 -8 -8 по сезону 1012.9 993.4
21 6.12 ЮЗ 6 10 км 5/5 1000 м
[Sc]
-1.6 -2.2 96 -9 -9 по сезону 1011.5 992.1
00 7.12 Ю 5 10 км 5/0
[Ac trans]
-2.2 -3.1 94 -9 -9 по сезону 1010.3 990.9
03 7.12 Ю 5 4000 м слабый снег 10/10 150 м
[Frnb Ns]
-1.4 -1.9 96 -8 -8 по сезону 1008.2 988.9 -3.3
06 7.12 ЮЗ 7
{10}
1200 м снег 10/10 120 м
[Frnb Ns]
-0.4 -0.7 98 -8 -8 по сезону 1007.3 988.1 -3.3
09 7.12 З 7 10 км слабый ливневой снег 10/10 270 м
[Cb calv]
+0.1 -0.7 94 -7 -7 по сезону 1006.6 987.4
12 7.12 З 6
{10}
10 км слабый ливневой снег 10/10 270 м
[Cb calv]
-0.1 -1.5 90 -7 -7 по сезону 1006.8 987.6
15 7.12 З 7 10 км {ливн. осадки} 9/9 870 м
[Sc]
-1.3 -3.5 85 -9 -9 по сезону 1008.3 989.0 +0.5
18 7.12 З 7 10 км {ливн. осадки} 9/9 870 м
[Sc]
-1.8 -3.8 86 -9 -9 по сезону 1009.1 989.8
21 7.12 З 5 10 км {ливн. осадки} 5/5 1000 м
[Sc]
-3.3 -5.2 87 -10 -10 по сезону 1009.7 990.2
00 8.12 З 8
{10}
10 км {ливн. осадки} 9/9 1000 м
[Sc]
-2.8 -4.8 86 -11 -11 по сезону 1010.1 990.7
03 8.12 З 8-11
{11}
10 км слабый ливневой снег 9/9 540 м
[Cb calv]
-2.7 -4.8 85 -11 -11 по сезону 1010.9 991.5 -3.3
06 8.12 СЗ 10-13
{11}
10 км в посл. час ливневой снег {метель} 9/9 500 м
[Sc]
-2.7 -5.6 80 -12 -12 по сезону 1012.8 993.3
09 8.12 СЗ 8-12
{13}
10 км {метель} 9/9 420 м
[St]
-2.2 -4.8 82 -10 -10 по сезону 1013.9 994.4
12 8.12 СЗ 8-11
{13}
10 км {метель} 9/9 500 м
[Sc]
-2.0 -4.6 82 -10 -10 по сезону 1015.7 996.2
15 8.12 СЗ 6
{11}
10 км 9/9 630 м
[Sc]
-2.4 -5.9 77 -9 -9 по сезону 1017.8 998.2 -1.6
18 8.12 СЗ 4
{11}
10 км 9/9 800 м
[Sc]
-2.9 -6.6 76 -9 -9 по сезону 1019.8 1000.2
21 8.12 СЗ 3 10 км 9/9 700 м
[Sc]
-3.3 -7.5 73 -8 -8 по сезону 1021.5 1001.8
00 9.12 СЗ 2 10 км 9/9 630 м
[Sc]
-3.8 -7.0 78 -8 -8 по сезону 1022.4 1002.7
03 9.12 штиль 0 10 км 4/0
[Ac trans]
-5.9 -7.8 86 -7 -7 по сезону 1023.6 1003.7 -6.1
06 9.12 Ю 2 10 км 4/0
[Ac trans]
-4.8 -6.9 85 -9 -9 по сезону 1024.8 1004.9 -8.0
09 9.12 Ю 4 10 км 6/6 1000 м
[Sc]
-1.7 -6.1 72 -7 -7 по сезону 1023.7 1004.1
12 9.12 Ю 4 10 км 8/8 1000 м
[Sc]
-1.2 -5.7 71 -7 -7 по сезону 1023.3 1003.7
15 9.12 ЮВ 4 10 км 8/8 1500 м
[Sc]
-1.2 -4.5 78 -7 -7 по сезону 1023.2 1003.6 -1.0
18 9.12 ЮВ 5 10 км 9/9 960 м
[Sc]
-0.9 -4.5 77 -7 -7 по сезону 1022.7 1003.2
21 9.12 ЮВ 6 10 км {снег} 10/10 480 м
[Sc]
-0.8 -3.0 85 -8 -8 по сезону 1022.4 1002.9
00 10.12 ЮВ 7 4000 м слабый переохл. дождь (гололёд) {снег} 10/10 420 м
[Frnb Ns]
-0.5 -1.1 96 -8 -8 по сезону 1021.7 1002.2
03 10.12 ЮВ 5 4000 м дымка {дождь} 9/0
[Ac trans]
-0.7 -1.0 98 -7 -7 по сезону 1021.3 1001.8 -1.3
06 10.12 ЮВ 4 4000 м дымка {дождь} 9/0
[Ac trans]
-0.1 -0.6 96 -6 -6 по сезону 1021.7 1002.2
09 10.12 ЮВ 3 4000 м дымка 9/0
[Ac trans]
+1.5 +0.6 94 -3 -2 тепло 1021.2 1001.9
12 10.12 ЮВ 4 10 км 4/0
[Ac trans]
+2.5 +1.0 90 -2 -2 тепло 1020.9 1001.6
15 10.12 ЮВ 6 4000 м дымка ясно +0.7 +0.3 97 -6 -6 по сезону 1021.0 1001.6 +3.2
18 10.12 ЮВ 7
{10}
200 м туман ?/? +0.4 +0.4 100 -7 -7 по сезону 1020.5 1001.1
21 10.12 Ю 8-10
{13}
4000 м в посл. час туман 10/10 90 м
[St]
+0.6 +0.6 100 -7 -7 по сезону 1020.7 1001.3
00 11.12 ЮВ 9
{13}
4000 м дымка {туман} 10/10 90 м
[St]
+0.2 +0.2 100 -8 -8 по сезону 1019.2 999.8
03 11.12 ЮВ 8-10
{13}
300 м туман ?/? +1.1 +1.1 100 -6 -6 по сезону 1020.0 1000.7 -0.2
06 11.12 Ю 8-10
{13}
1900 м слабый дождь {туман} 10/10 60 м
[Frnb Ns]
+2.1 +2.1 100 -5 -5 по сезону 1021.3 1002.0
09 11.12 Ю 4
{10}
4000 м слабый ливневой дождь 10/10 90 м
[Cb calv]
+2.5 +2.5 100 -3 -3 тепло 1022.5 1003.2
12 11.12 ЮЗ 5
{11}
10 км {ливн. осадки, дождь} 8/8 570 м
[Sc]
+2.1 -0.2 85 -3 -3 тепло 1023.3 1004.0
15 11.12 ЮЗ 5 10 км 4/0
[Ci fib]
-0.1 -1.3 92 -6 -6 по сезону 1025.6 1006.1 +2.9
18 11.12 ЮЗ 5 10 км 9/0
[Ac trans]
-0.2 -1.9 88 -6 -6 по сезону 1025.9 1006.4
21 11.12 Ю 1 10 км 9/0
[Ac trans]
+0.7 -1.4 86 -1 -1 тепло 1026.1 1006.6
00 12.12 Ю 4 10 км 9/4 1000 м
[Sc Ac trans]
+1.1 -1.2 85 -4 -4 тепло 1025.9 1006.4
03 12.12 ЮВ 5 10 км 9/4 1000 м
[Sc Ac trans]
+1.8 -0.2 87 -4 -4 тепло 1025.1 1005.7 -1.1
06 12.12 Ю 4 10 км слабый ливневой дождь 9/9 840 м
[Cb calv]
+2.4 +0.7 89 -3 -3 тепло 1025.1 1005.8
09 12.12 Ю 5 4000 м слабый ливневой дождь 10/10 630 м
[Cb calv]
+2.8 +2.6 99 -3 -3 тепло 1024.3 1005.0
12 12.12 Ю 4 10 км слабый ливневой дождь 9/9 200 м
[Cb calv]
+3.5 +3.2 98 -1 -1 тепло 1023.3 1004.1
15 12.12 Ю 5 4000 м слабый ливневой дождь 9/9 500 м
[Cb calv]
+4.1 +3.9 99 -1 -1 тепло 1023.6 1004.4 +4.2
18 12.12 Ю 6 4000 м слабый ливневой дождь 9/9 630 м
[Cb calv]
+4.1 +3.6 97 -2 -2 тепло 1022.7 1003.5
21 12.12 Ю 6 10 км {ливн. осадки} 9/9 1000 м
[Sc]
+4.5 +3.6 94 -1 -1 тепло 1021.8 1002.7
00 13.12 Ю 4 10 км {ливн. осадки} 9/9 800 м
[Sc]
+4.9 +3.6 91 +1 +1 тепло 1021.5 1002.4
03 13.12 Ю 6 10 км 9/9 450 м
[Sc]
+5.2 +3.4 88 0 0 тепло 1021.0 1001.9 +3.8
06 13.12 Ю 6 10 км 9/9 240 м
[St]
+5.0 +3.0 87 -0 -0 тепло 1021.7 1002.6
09 13.12 Ю 5 10 км 9/9 1000 м
[Sc]
+6.2 +3.9 85 +2 +2 тепло 1021.5 1002.5
12 13.12 ЮВ 5 10 км 9/9 400 м
[St]
+6.3 +4.4 88 +2 +2 тепло 1021.3 1002.3

 

Местоположение метеостанции Волгоград (Волгоградская область, Россия): широта 48.78 долгота 44.37 высота над уровнем моря 134 м.

В архиве по умолчанию представлена погода в Волгограде за последнюю неделю. Архивные данные за месяц целиком и за предыдущие месяцы, начиная с января 2011 года, Вы можете получить, выбрав интересующий диапазон дат из раскрывающегося списка и нажав кнопку "Ввод!".

Внимание! Время в таблицах - всемирное. Для получения местного времени необходимо прибавить поправку, которая в Волгограде равна 3 ч.

Смотрите также архив погоды в соседних городах и на ближайших метеорологических станциях:

Погода в Волгограде город (Волгоградская область, Россия) (14 км)
Погода в Иловле (Волгоградская область, Россия) (64 км)
Погода в Калаче-на-Дону (Волгоградская область, Россия) (66 км)
Погода в Малых Дербетах (Калмыкия, Россия) (98 км)
Погода в Нижнем Чире (Волгоградская область, Россия) (105 км)
Погода в Ольховке (Волгоградская область, Россия) (122 км)
Погода в Фролове (Волгоградская область, Россия) (124 км)
Погода в Серафимовиче (Волгоградская область, Россия) (148 км)
Погода в Черный Яр (Астраханская область, Россия) (151 км)
Погода в Котельниково (Волгоградская область, Россия) (157 км)

Пояснения к столбцам:

Ветер - указаны скорость ветра в м/с - средняя за 10 мин, порывы в срок и между сроками (в фигурных скобках) и направление, откуда дует ветер: С - северный, СВ - северо-восточный, В - восточный, ЮВ - юго-восточный, Ю - южный, ЮЗ - юго-западный, З - западный, СЗ - северо-западный.
Видимость - горизонтальная дальность видимости в метрах или километрах. При видимости от 1 до 10 км при отсутствии осадков обычно наблюдается дымка, при ухудшении видимости до 1 км и менее - туман. В сухую погоду видимость может ухудшаться дымом, пылью или мглою.
Явления - указаны атмосферные явления, наблюдавшиеся в срок или в последний час перед сроком; фигурными скобками обозначены явления, наблюдавшиеся между сроками (за 1-3 часа до срока); квадратными скобками обозначены град или гололедные отложения с указанием их диаметра в мм.
Облачность - указаны через наклонную черту общая и нижняя облачность в баллах и высота нижней границы облаков в метрах; квадратными скобками обозначены формы облаков: Ci - перистые, Cs - перисто-слоистые, Cc - перисто-кучевые, Ac - высококучевые, As - высокослоистые, Sc - слоисто-кучевые, Ns - слоисто-дождевые, Cu - кучевые, Cb - кучево-дождевые. Подробнее классификацию облаков см. в Атласе облаков (PDF).
T - Температура воздуха - температура, измеренная на высоте 2 м над землей.
Td - Температура точки росы - температура, при понижении до которой содержащийся в воздухе водяной пар достигнет насыщения.
f - Относительная влажность воздуха - влажноcть воздуха, измеренная на высоте 2 м над землей.
Te - Эффективная температура - температура, которую ощущает одетый по сезону человек в тени. Характеристика душности погоды. При расчете учитывается влияние влажности воздуха и скорости ветра на теплоощущения человека.
Tes - Эффективная температура на солнце - температура, которую ощущает человек, с поправкой на солнечный нагрев. Характеристика знойности погоды. Зависит от высоты солнца над горизонтом, облачности и скорости ветра. Ночью, в пасмурную погоду, а также при ветре 12 м/с и более поправка равна нулю.
P - Атмосферное давление - приведенное к уровню моря атмосферное давление.
Po - Атмосферное давление - измеренное на уровне метеостанции атмосферное давление.
Tmin - Минимальная температура - минимум температуры воздуха на высоте 2 м над землей.
Tmax - Максимальная температура - максимум температуры воздуха на высоте 2 м над землей.
R - Количество осадков - Количество выпавших осадков за период времени, мм. При наведении курсора мыши на число - период времени, за который выпало указанное количество осадков.
R24 - Количество осадков - Количество выпавших осадков за 24 часа, мм.
S - Снежный покров - Высота снежного покрова, см. При наведении курсора мыши на число - состояние снежного покрова и степень покрытия местности в баллах.